User: anonymous   Login
Location: Unspecified
(0.0000°N, 0.0000°E)
Time: 02:10:33
(UTC+00:00)
Language:

STARLINK-30980 - Orbit

View from above orbital plane
View from above orbital plane
View from above satellite
View from above satellite

Ground track
Ground track

The orbit is defined by the following mean orbital elements,

1 58476U          26145.58418066 +.00000000 +00000-0 +87405-4 0 00007
2 58476  43.0036 353.0157 0001799 269.7066  90.3579 15.27576136    00
Epoch (UTC): 25 May 2026 14:01:13
Eccentricity: 0.0001799
inclination: 43.0036°
perigee height: 482 km
apogee height: 484 km
right ascension of ascending node: 353.0157°
argument of perigee: 269.7066°
revolutions per day: 15.27576136
mean anomaly at epoch: 90.3579°

The dashed part of the orbit path shows where the satellite is in the earth's shadow,  

DLR